Location: Windsor
(43.2292°N, 89.3015°W)
Time: 04:01:33
(UTC+00:00)

X-37B - Pass Details

Date: 08 December 2023
Orbit: 277 x 277 km, 45.0° (Epoch: 01 November)

Event Time Altitude Azimuth Distance (km) Brightness Sun altitude
Rises 00:37:26 0° 284° (WNW) 1,916 5.2 -23.9°
Reaches altitude 10° 00:39:23 10° 279° (W) 1,102 3.8 -24.3°
Enters shadow 00:39:43 13° 277° (W) 970 3.5 -24.3°
